[[{"header":{"parameterUnit":"m.s-1","parameterCategory":1,"la1":30.2991,"la2":30.254,"lo1":-89.0895,"lo2":-89.0444,"dy":0.0017,"dx":0.0017,"nx":28,"ny":28,"refTime":"2024-10-07T09:00:00:Z","depth":0,"parameterNumber":2,"parameterNumberName":"U-component_of_WINDS"},"data":[0,0,0,0,0,0,0,0,0,0,0,0,0,0,0,0,0,0,0,0,0,0,0,0,0,0,0,0,0,0,0,0,0,0,0,0,0,0,0,0,0,0,0,0,0,0,0,0,0,0,0,0,0,0,0,0,0,0,-0.8228,-0.8227,0,-0.8163,-0.8162,-0.8162,-0.8079,-0.8078,-0.8077,-0.8076,-0.801,-0.801,-0.8009,0,0,0,0,0,0,0,0,0,0,0,0,0,-0.828,-0.828,-0.8228,-0.8227,-0.8226,-0.8163,-0.8162,-0.8161,-0.808,-0.8078,-0.8076,-0.8075,-0.8011,-0.801,-0.8009,0,0,0,0,0,0,0,0,0,0,0,0,0,-0.8241,-0.828,-0.8228,-0.8178,-0.8173,-0.8163,-0.8162,-0.8161,-0.808,-0.8078,-0.8076,-0.8074,-0.8011,-0.801,-0.8009,-0.8044,0,0,-0.8007,-0.8007,0,0,0,0,0,0,0,0,-0.8243,-0.8239,-0.8186,-0.8181,-0.8176,-0.8127,-0.8157,-0.8122,-0.808,-0.8115,-0.8075,-0.8073,-0.8051,-0.8047,-0.8039,-0.8041,-0.8038,-0.8007,-0.8006,-0.8006,-0.8006,0,0,0,0,0,0,0,-0.8246,-0.8241,-0.8202,-0.8186,-0.8179,-0.8158,-0.8151,-0.815,-0.8095,-0.8112,-0.8106,-0.8099,-0.8048,-0.804,-0.8037,-0.8037,-0.8007,-0.8006,-0.8006,-0.8005,-0.8062,-0.8064,0,0,0,0,0,0,-0.8256,-0.8244,-0.8204,-0.82,-0.8205,-0.8159,-0.815,-0.8145,-0.8095,-0.8085,-0.8101,-0.8096,-0.8042,-0.8038,-0.8034,-0.807,-0.8006,-0.8005,-0.8005,-0.806,-0.8062,-0.8064,0,0,0,0,0,0,-0.8258,-0.8254,-0.8207,-0.8221,-0.8213,-0.816,-0.8155,-0.8145,-0.8137,-0.8086,-0.8076,-0.8103,-0.804,-0.8035,-0.8041,-0.8067,-0.8005,-0.8004,-0.8057,-0.806,-0.8063,-0.8143,0,0,0,0,0,0,-0.826,-0.8255,-0.8268,-0.8221,-0.8213,-0.8216,-0.8156,-0.8145,-0.8135,-0.8128,-0.8086,-0.8077,-0.8038,-0.8043,-0.8041,-0.8064,-0.8004,-0.8055,-0.8059,-0.8062,-0.8138,-0.8149,-0.8157,0,0,0,0,0,-0.8262,-0.8294,-0.8269,-0.8265,-0.8228,-0.8218,-0.8213,-0.8167,-0.8138,-0.815,-0.8117,-0.8078,-0.8064,-0.8044,-0.8041,-0.8065,-0.8053,-0.8058,-0.8062,-0.8134,-0.8147,-0.8157,0,0,0,0,0,0,-0.8346,-0.8287,-0.8259,-0.8277,-0.8253,-0.8204,-0.8218,-0.8183,-0.8167,-0.8161,-0.8105,-0.8096,-0.8109,-0.8087,-0.8067,-0.8095,-0.8053,-0.8057,-0.8108,-0.812,-0.813,-0.8135,-0.8003,0,0,0,0,0,-0.8366,-0.8363,-0.8311,-0.8332,-0.8321,-0.8272,-0.8266,-0.8233,-0.8206,-0.8196,-0.8163,-0.8139,-0.8128,-0.8123,-0.8111,-0.8134,-0.8123,-0.8149,-0.8158,-0.8167,-0.8171,-0.8179,-0.819,-0.8079,-0.8079,-0.8079,0,0,-0.8409,-0.8376,-0.8378,-0.8348,-0.8326,-0.8323,-0.8264,-0.8264,-0.8261,-0.8196,-0.8199,-0.8174,-0.8143,-0.8157,-0.8162,-0.814,-0.8199,-0.8172,-0.8179,-0.8179,-0.8185,-0.8195,-0.8205,-0.8082,-0.8081,-0.8081,0,0,-0.8485,-0.846,-0.8474,-0.8452,-0.8418,-0.8384,-0.8387,-0.8343,-0.8324,-0.8326,-0.8276,-0.8271,-0.8256,-0.8234,-0.8222,-0.8286,-0.8249,-0.8284,-0.8335,-0.8344,-0.8352,-0.836,-0.8382,-0.839,-0.8288,-0.8289,-0.8289,0,-0.8542,-0.8536,-0.8486,-0.8488,-0.8476,-0.8414,-0.8427,-0.8408,-0.8373,-0.8365,-0.834,-0.8317,-0.8292,-0.8299,-0.8315,-0.8307,-0.8308,-0.8289,-0.8355,-0.8362,-0.8368,-0.8388,-0.8397,-0.8293,-0.8292,-0.8292,-0.8292,0,-0.8607,-0.8603,-0.8618,-0.8584,-0.8573,-0.8581,-0.8531,-0.8526,-0.8493,-0.8462,-0.8464,-0.8431,-0.841,-0.8409,-0.8378,-0.8411,-0.8398,-0.8365,-0.8322,-0.8384,-0.8402,-0.841,-0.8299,-0.8298,-0.8296,-0.8295,0,0,-0.8736,-0.8672,-0.8678,-0.8661,-0.8617,-0.8613,-0.8617,-0.8595,-0.8592,-0.8568,-0.857,-0.8556,-0.8524,-0.8509,-0.8475,-0.8483,-0.8534,-0.8448,-0.8446,-0.8464,-0.8567,-0.8592,-0.8602,-0.8508,-0.851,-0.8511,-0.8569,0,-0.8804,-0.8807,-0.876,-0.8776,-0.8771,-0.8711,-0.8714,-0.8687,-0.8658,-0.8648,-0.8615,-0.8606,-0.8565,-0.8556,-0.8561,-0.8527,-0.8553,-0.8522,-0.8508,-0.8508,-0.8518,-0.8611,-0.8639,-0.8696,-0.8576,-0.8577,-0.8578,0,-0.8884,-0.8863,-0.8878,-0.8831,-0.8827,-0.8831,-0.8806,-0.8799,-0.8766,-0.8744,-0.8726,-0.8686,-0.8685,-0.8644,-0.8641,-0.8621,-0.8612,-0.8594,-0.8595,-0.8592,-0.8547,-0.8611,-0.8713,-0.8721,-0.8589,-0.8588,-0.8587,0,-0.8975,-0.8951,-0.8956,-0.8943,-0.889,-0.8893,-0.8871,-0.8836,-0.8826,-0.8804,-0.8796,-0.8775,-0.8763,-0.8747,-0.8701,-0.8676,-0.8704,-0.8659,-0.8684,-0.8685,-0.8694,-0.8694,-0.8795,-0.8689,-0.8689,-0.8688,-0.8688,0,-0.9055,-0.9066,-0.8996,-0.9,-0.9009,-0.8955,-0.8966,-0.8938,-0.8908,-0.8904,-0.8851,-0.8848,-0.8788,-0.8778,-0.8742,-0.8745,-0.874,-0.8721,-0.8712,-0.8726,-0.8728,-0.872,-0.8715,-0.8691,-0.869,-0.869,-0.8689,0,-0.9159,-0.9113,-0.9114,-0.9062,-0.9049,-0.9059,-0.9014,-0.9015,-0.898,-0.8976,-0.8972,-0.8918,-0.8904,-0.8856,-0.883,-0.8805,-0.8819,-0.8801,-0.883,-0.8823,-0.8851,-0.8849,-0.8951,-0.8961,-0.8849,-0.885,-0.8851,0,-0.9214,-0.9221,-0.9169,-0.9162,-0.9142,-0.9132,-0.9119,-0.9065,-0.9055,-0.9017,-0.9022,-0.9002,-0.8984,-0.8964,-0.8922,-0.8901,-0.8882,-0.8919,-0.8878,-0.8892,-0.8881,-0.8881,-0.8881,-0.8928,-0.8929,-0.8931,-0.8932,0,-0.9315,-0.929,-0.9275,-0.9251,-0.9238,-0.9217,-0.9193,-0.919,-0.9129,-0.912,-0.9104,-0.909,-0.9062,-0.9043,-0.9015,-0.8991,-0.8951,-0.8944,-0.8949,-0.8964,-0.898,-0.8971,-0.8853,-0.8943,-0.8941,-0.8941,-0.894,-0.894,-0.9395,-0.9397,-0.936,-0.9345,-0.932,-0.9298,-0.9295,-0.926,-0.9245,-0.9218,-0.9186,-0.9173,-0.9138,-0.9096,-0.9075,-0.9063,-0.9042,-0.9049,-0.9051,-0.9053,-0.9059,-0.8982,-0.9058,-0.9058,-0.9057,-0.9057,-0.9057,0,-0.9492,-0.9465,-0.9451,-0.9417,-0.9404,-0.9367,-0.9337,-0.9329,-0.9318,-0.9288,-0.9271,-0.9251,-0.9232,-0.9188,-0.9164,-0.9163,-0.9144,-0.9159,-0.9158,-0.9153,-0.9081,-0.9079,-0.9174,-0.9174,-0.9174,-0.9174,-0.9174,-0.9174,-0.9541,-0.9543,-0.9514,-0.9502,-0.9475,-0.9461,-0.9447,-0.9426,-0.9402,-0.9382,-0.9365,-0.9336,-0.93,-0.9273,-0.9253,-0.924,-0.9234,-0.9255,-0.9236,-0.917,-0.9158,-0.9148,-0.9145,-0.9254,-0.9254,-0.9309,-0.931,-0.931]},{"header":{"parameterUnit":"m.s-1","parameterCategory":1,"la1":30.2991,"la2":30.254,"lo1":-89.0895,"lo2":-89.0444,"dy":0.0017,"dx":0.0017,"nx":28,"ny":28,"refTime":"2024-10-07T09:00:00:Z","depth":0,"parameterNumber":3,"parameterNumberName":"V-component_of_WINDS"},"data":[0,0,0,0,0,0,0,0,0,0,0,0,0,0,0,0,0,0,0,0,0,0,0,0,0,0,0,0,0,0,0,0,0,0,0,0,0,0,0,0,0,0,0,0,0,0,0,0,0,0,0,0,0,0,0,0,0,0,-3.0694,-3.0695,0,-3.0756,-3.0757,-3.0758,-3.0717,-3.0715,-3.0713,-3.0711,-3.0771,-3.0775,-3.0778,0,0,0,0,0,0,0,0,0,0,0,0,0,-3.0535,-3.0539,-3.0694,-3.0695,-3.0696,-3.0756,-3.0757,-3.0758,-3.0717,-3.0715,-3.0713,-3.0711,-3.077,-3.0774,-3.0778,0,0,0,0,0,0,0,0,0,0,0,0,0,-3.0602,-3.054,-3.0694,-3.0683,-3.0682,-3.0756,-3.0757,-3.0758,-3.0718,-3.0715,-3.0712,-3.071,-3.0769,-3.0774,-3.0779,-3.0866,0,0,-3.0794,-3.0796,0,0,0,0,0,0,0,0,-3.0598,-3.0607,-3.0684,-3.0684,-3.0683,-3.0726,-3.0723,-3.0794,-3.0718,-3.0704,-3.0711,-3.0708,-3.0758,-3.0764,-3.0782,-3.0869,-3.0871,-3.0795,-3.0798,-3.08,-3.0801,0,0,0,0,0,0,0,-3.0593,-3.0604,-3.0718,-3.0685,-3.0685,-3.0673,-3.0679,-3.0736,-3.0746,-3.0705,-3.0702,-3.0711,-3.0758,-3.0777,-3.0783,-3.0872,-3.0794,-3.0799,-3.0802,-3.0804,-3.1032,-3.1035,0,0,0,0,0,0,-3.059,-3.0601,-3.0716,-3.072,-3.0633,-3.0678,-3.0685,-3.0715,-3.0745,-3.0747,-3.0713,-3.0708,-3.077,-3.0777,-3.0785,-3.0888,-3.08,-3.0804,-3.0807,-3.1029,-3.1033,-3.1036,0,0,0,0,0,0,-3.0587,-3.0601,-3.0714,-3.066,-3.0673,-3.0684,-3.0718,-3.0718,-3.0737,-3.0751,-3.0752,-3.0731,-3.0768,-3.0778,-3.0846,-3.089,-3.0807,-3.0811,-3.1025,-3.103,-3.1034,-3.1097,0,0,0,0,0,0,-3.0583,-3.06,-3.0634,-3.0661,-3.0677,-3.0776,-3.072,-3.0721,-3.0746,-3.0741,-3.0769,-3.0771,-3.0767,-3.0839,-3.0851,-3.0895,-3.0815,-3.1022,-3.1028,-3.1033,-3.1091,-3.1103,-3.1113,0,0,0,0,0,-3.0577,-3.0649,-3.0636,-3.0651,-3.072,-3.0778,-3.0787,-3.0782,-3.075,-3.0784,-3.0793,-3.077,-3.0883,-3.0846,-3.086,-3.0906,-3.1019,-3.1026,-3.1033,-3.1086,-3.11,-3.1113,0,0,0,0,0,0,-3.0626,-3.0652,-3.0639,-3.0721,-3.0748,-3.0771,-3.0814,-3.0798,-3.0833,-3.0827,-3.0818,-3.0824,-3.0896,-3.0907,-3.0866,-3.0991,-3.0946,-3.0956,-3.0981,-3.0995,-3.1006,-3.1002,-3.0819,0,0,0,0,0,-3.0646,-3.0693,-3.0713,-3.0784,-3.0798,-3.0804,-3.0829,-3.0823,-3.085,-3.0861,-3.0874,-3.09,-3.0941,-3.0969,-3.1008,-3.1092,-3.1097,-3.113,-3.1141,-3.115,-3.1159,-3.1204,-3.1219,-3.1059,-3.1059,-3.1059,0,0,-3.0689,-3.0709,-3.0739,-3.0794,-3.0814,-3.0861,-3.0814,-3.0866,-3.09,-3.0868,-3.0934,-3.0945,-3.0973,-3.1049,-3.1083,-3.1061,-3.1204,-3.1159,-3.1166,-3.117,-3.1213,-3.1228,-3.1241,-3.1063,-3.1063,-3.1062,0,0,-3.0791,-3.0811,-3.0872,-3.0893,-3.0925,-3.0928,-3.0943,-3.0969,-3.0975,-3.1041,-3.1018,-3.1057,-3.1129,-3.115,-3.117,-3.1279,-3.1259,-3.1291,-3.135,-3.1394,-3.1406,-3.1417,-3.1456,-3.147,-3.13,-3.13,-3.13,0,-3.0839,-3.0911,-3.0905,-3.096,-3.0984,-3.0958,-3.1019,-3.1039,-3.1081,-3.1098,-3.1072,-3.1161,-3.1178,-3.1259,-3.1286,-3.1303,-3.1318,-3.1289,-3.1405,-3.1416,-3.1427,-3.1463,-3.1478,-3.1304,-3.1303,-3.1303,-3.1303,0,-3.0969,-3.1019,-3.1065,-3.1107,-3.1137,-3.1194,-3.1195,-3.1225,-3.1216,-3.1222,-3.1289,-3.1308,-3.135,-3.1368,-3.136,-3.1448,-3.1433,-3.1407,-3.1361,-3.1446,-3.148,-3.1494,-3.1309,-3.1308,-3.1307,-3.1306,0,0,-3.1105,-3.1143,-3.116,-3.1179,-3.1211,-3.1249,-3.1304,-3.1346,-3.1372,-3.1401,-3.1447,-3.1508,-3.1483,-3.1506,-3.1499,-3.1537,-3.1622,-3.1506,-3.1506,-3.1527,-3.172,-3.174,-3.1757,-3.1608,-3.1611,-3.1613,-3.1717,0,-3.1209,-3.1308,-3.1303,-3.1395,-3.144,-3.1415,-3.1463,-3.1487,-3.1494,-3.1532,-3.1538,-3.1581,-3.1546,-3.1559,-3.1596,-3.1604,-3.166,-3.1596,-3.165,-3.1652,-3.1645,-3.1775,-3.1796,-3.1894,-3.1731,-3.1733,-3.1735,0,-3.1344,-3.1379,-3.1476,-3.1501,-3.152,-3.1563,-3.1601,-3.1639,-3.1665,-3.1666,-3.1692,-3.1678,-3.1732,-3.1684,-3.1759,-3.1715,-3.1736,-3.1743,-3.1747,-3.1752,-3.1699,-3.1784,-3.1925,-3.194,-3.1756,-3.1754,-3.1753,0,-3.1433,-3.1504,-3.1572,-3.1588,-3.1619,-3.165,-3.1664,-3.1687,-3.1713,-3.1745,-3.1762,-3.18,-3.1821,-3.1849,-3.1846,-3.1811,-3.1921,-3.1873,-3.1923,-3.1924,-3.1948,-3.1947,-3.2096,-3.1961,-3.1961,-3.1961,-3.196,0,-3.155,-3.161,-3.1612,-3.1654,-3.172,-3.1713,-3.1778,-3.1788,-3.1809,-3.1851,-3.183,-3.187,-3.1862,-3.1901,-3.1898,-3.196,-3.1969,-3.1971,-3.197,-3.1974,-3.1974,-3.1988,-3.1981,-3.1965,-3.1964,-3.1963,-3.1962,0,-3.1662,-3.1666,-3.1737,-3.176,-3.1768,-3.1815,-3.1834,-3.1873,-3.1877,-3.193,-3.1942,-3.1948,-3.1992,-3.1991,-3.2041,-3.2039,-3.2115,-3.2105,-3.2107,-3.2105,-3.2156,-3.2151,-3.232,-3.2341,-3.2192,-3.2194,-3.2195,0,-3.1737,-3.1783,-3.1811,-3.1839,-3.1855,-3.1899,-3.1925,-3.1919,-3.1947,-3.198,-3.2014,-3.2057,-3.2091,-3.2162,-3.217,-3.2208,-3.22,-3.2256,-3.2205,-3.2207,-3.2201,-3.2198,-3.2203,-3.2266,-3.2268,-3.2269,-3.227,0,-3.1869,-3.1869,-3.1908,-3.1949,-3.1981,-3.2012,-3.204,-3.2063,-3.206,-3.2092,-3.2138,-3.2164,-3.2216,-3.2258,-3.2294,-3.2306,-3.2288,-3.2286,-3.23,-3.2304,-3.2304,-3.2305,-3.2135,-3.2282,-3.2281,-3.228,-3.228,-3.2279,-3.1965,-3.2005,-3.2031,-3.2076,-3.2096,-3.2123,-3.2161,-3.217,-3.2208,-3.2251,-3.2244,-3.2295,-3.2319,-3.2366,-3.2381,-3.242,-3.24,-3.242,-3.2425,-3.243,-3.2436,-3.2297,-3.2426,-3.2426,-3.2426,-3.2425,-3.2425,0,-3.2097,-3.2113,-3.2154,-3.2195,-3.2229,-3.2209,-3.2239,-3.2269,-3.2315,-3.2339,-3.2373,-3.2425,-3.2466,-3.2477,-3.2516,-3.2544,-3.2537,-3.2555,-3.2553,-3.2556,-3.2452,-3.2436,-3.256,-3.256,-3.256,-3.256,-3.256,-3.256,-3.217,-3.2236,-3.2238,-3.2314,-3.2328,-3.238,-3.2398,-3.2422,-3.2442,-3.2501,-3.2536,-3.2543,-3.2561,-3.2601,-3.2637,-3.2639,-3.2654,-3.2676,-3.2675,-3.2577,-3.2563,-3.2551,-3.2536,-3.2679,-3.2679,-3.2776,-3.2777,-3.2777]}]]